Weather History for Lakeview AWS, OR

Change the Weather History Date:

Monday, November 19, 2012

  Actual Average Record
Temperature  
Mean Temperature 38 °F -  
Max Temperature 44 °F 42 °F 71 °F (1936)
Min Temperature 33 °F 23 °F -3 °F (1930)
Degree Days  
Heating Degree Days 26    
Moisture  
Dew Point 33 °F    
Average Humidity 76    
Maximum Humidity 81    
Minimum Humidity 71    
Precipitation  
Precipitation 0.00 in - - ()
Sea Level Pressure  
Sea Level Pressure 30.03 in    
Wind  
Wind Speed 18 mph (South)    
Max Wind Speed 28 mph    
Max Gust Speed 34 mph    
Visibility 10 miles    
Events      
Averages and records for this station are not official NWS values.
T = Trace of Precipitation, MM = Missing Value Source: NWS Daily Summary

Daily Weather History Graph

Daily Weather History Graph

Search for Another Location

Airport:

Trip Planner

Search our weather history database for the weather conditions in past years. The results will help you decide how hot, cold, wet, or windy it might be!

Date:

Astronomy

Nov. 19, 2012 Rise Set
Actual Time 6:57 AM PST 4:36 PM PST
Civil Twilight 6:27 AM PST 5:06 PM PST
Nautical Twilight 5:52 AM PST 5:41 PM PST
Astronomical Twilight 5:19 AM PST 6:14 PM PST
Moon 12:00 PM PST (11/19) 11:12 PM PST (11/19)
Length of Visible Light 10h 39m
Length of Day
9h 38m
Waxing Crescent, 42% of the Moon is Illuminated
Nov 19
Waxing Crescent
Nov 20
First Quarter
Nov 28
Full
Dec 6
Last Quarter
Dec 13
New

Hourly Weather History & Observations

Time (PST) Temp. Windchill Dew Point Humidity Pressure Visibility Wind Dir Wind Speed Gust Speed Precip Events Conditions
12:15 AM 33.8 °F 23.2 °F 28.4 °F 81% 30.05 in 10.0 mi South 17.3 mph - N/A   Mostly Cloudy
12:35 AM 33.8 °F 23.9 °F 28.4 °F 81% 30.06 in 10.0 mi SSW 15.0 mph - N/A   Mostly Cloudy
12:55 AM 33.8 °F 23.9 °F 28.4 °F 81% 30.06 in 10.0 mi SSW 15.0 mph - N/A   Overcast
1:15 AM 33.8 °F 23.5 °F 28.4 °F 81% 30.05 in 10.0 mi SSW 16.1 mph - N/A   Mostly Cloudy
1:35 AM 33.8 °F 23.9 °F 28.4 °F 81% 30.06 in 10.0 mi SSW 15.0 mph - N/A   Mostly Cloudy
1:55 AM 33.8 °F 24.8 °F 28.4 °F 81% 30.06 in 10.0 mi SSW 12.7 mph - N/A   Overcast
2:15 AM 33.8 °F 24.8 °F 28.4 °F 81% 30.06 in 10.0 mi South 12.7 mph - N/A   Overcast
2:35 AM 33.8 °F 25.3 °F 28.4 °F 81% 30.06 in 10.0 mi SSW 11.5 mph - N/A   Overcast
2:55 AM 33.8 °F 24.3 °F 28.4 °F 81% 30.06 in 10.0 mi SSW 13.8 mph - N/A   Overcast
3:15 AM 33.8 °F 23.9 °F 28.4 °F 81% 30.06 in 10.0 mi South 15.0 mph - N/A   Overcast
3:35 AM 33.8 °F 24.3 °F 28.4 °F 81% 30.05 in 10.0 mi South 13.8 mph - N/A   Overcast
3:55 AM 33.8 °F 24.3 °F 28.4 °F 81% 30.05 in 10.0 mi South 13.8 mph - N/A   Overcast
4:15 AM 33.8 °F 24.8 °F 28.4 °F 81% 30.05 in 10.0 mi South 12.7 mph - N/A   Overcast
4:35 AM 33.8 °F 25.3 °F 28.4 °F 81% 30.05 in 10.0 mi South 11.5 mph - N/A   Overcast
4:55 AM 33.8 °F 25.3 °F 28.4 °F 81% 30.06 in 10.0 mi South 11.5 mph - N/A   Overcast
5:35 AM 35.6 °F 28.6 °F 30.2 °F 81% 30.07 in 10.0 mi SSE 9.2 mph - N/A   Overcast
5:55 AM 35.6 °F 28.6 °F 30.2 °F 81% 30.06 in 10.0 mi SE 9.2 mph - N/A   Overcast
6:15 AM 35.6 °F 27.1 °F 30.2 °F 81% 30.06 in 10.0 mi SSE 12.7 mph 17.3 mph N/A   Overcast
6:35 AM 35.6 °F - 30.2 °F 81% - 10.0 mi North - - N/A   Overcast
6:55 AM 35.6 °F 25.9 °F 30.2 °F 81% 30.06 in 10.0 mi South 16.1 mph - N/A   Overcast
7:15 AM 35.6 °F 25.2 °F 30.2 °F 81% 30.06 in 10.0 mi SSE 18.4 mph 24.2 mph N/A   Overcast
7:35 AM 35.6 °F 25.2 °F 30.2 °F 81% 30.06 in 10.0 mi SSE 18.4 mph 25.3 mph N/A   Overcast
7:55 AM 35.6 °F 26.2 °F 30.2 °F 81% 30.06 in 10.0 mi SSE 15.0 mph 21.9 mph N/A   Overcast
8:15 AM 37.4 °F 28.2 °F 32.0 °F 81% 30.05 in 10.0 mi South 16.1 mph 21.9 mph N/A   Overcast
8:35 AM 37.4 °F 27.8 °F 32.0 °F 81% 30.05 in 10.0 mi SSE 17.3 mph 24.2 mph N/A   Overcast
8:55 AM 39.2 °F 30.8 °F 33.8 °F 81% 30.06 in 10.0 mi SSE 15.0 mph 23.0 mph N/A   Overcast
9:15 AM 39.2 °F 29.6 °F 32.0 °F 75% 30.06 in 10.0 mi South 19.6 mph 26.5 mph N/A   Overcast
9:35 AM 39.2 °F 29.8 °F 33.8 °F 81% 30.07 in 10.0 mi South 18.4 mph 25.3 mph N/A   Overcast
9:55 AM 39.2 °F 29.3 °F 33.8 °F 81% 30.06 in 10.0 mi South 20.7 mph 27.6 mph N/A   Overcast
10:15 AM 41.0 °F 31.4 °F 33.8 °F 76% 30.06 in 10.0 mi South 21.9 mph 32.2 mph N/A   Scattered Clouds
10:35 AM 41.0 °F 30.7 °F 33.8 °F 76% 30.07 in 10.0 mi South 25.3 mph 32.2 mph N/A   Partly Cloudy
10:55 AM 41.0 °F 31.4 °F 33.8 °F 76% 30.07 in 10.0 mi South 21.9 mph 28.8 mph N/A   Scattered Clouds
11:15 AM 42.8 °F 33.5 °F 35.6 °F 76% 30.07 in 10.0 mi South 23.0 mph 28.8 mph N/A   Mostly Cloudy
11:35 AM 42.8 °F 33.1 °F 35.6 °F 76% 30.06 in 10.0 mi South 25.3 mph 31.1 mph N/A   Overcast
11:55 AM 42.8 °F 34.0 °F 35.6 °F 76% 30.05 in 10.0 mi South 20.7 mph 28.8 mph N/A   Overcast
12:15 PM 42.8 °F 33.1 °F 35.6 °F 76% 30.04 in 10.0 mi South 25.3 mph 33.4 mph N/A   Overcast
12:35 PM 44.6 °F 35.5 °F 35.6 °F 71% 30.04 in 10.0 mi South 25.3 mph 31.1 mph N/A   Overcast
12:55 PM 44.6 °F 35.7 °F 37.4 °F 76% 30.04 in 10.0 mi South 24.2 mph 34.5 mph N/A   Overcast
1:15 PM 44.6 °F 35.7 °F 35.6 °F 71% 30.04 in 10.0 mi South 24.2 mph 33.4 mph N/A   Overcast
1:35 PM 44.6 °F 36.4 °F 37.4 °F 76% 30.03 in 10.0 mi South 20.7 mph 27.6 mph N/A   Overcast
1:55 PM 44.6 °F 35.5 °F 35.6 °F 71% 30.03 in 10.0 mi South 25.3 mph 32.2 mph N/A   Overcast
2:15 PM 44.6 °F 35.9 °F 35.6 °F 71% 30.03 in 10.0 mi South 23.0 mph 31.1 mph N/A   Overcast
2:35 PM 44.6 °F 36.1 °F 35.6 °F 71% 30.02 in 10.0 mi South 21.9 mph 28.8 mph N/A   Overcast
2:55 PM 44.6 °F 35.7 °F 35.6 °F 71% 30.01 in 10.0 mi South 24.2 mph 33.4 mph N/A   Overcast
3:15 PM 44.6 °F 36.1 °F 35.6 °F 71% 30.00 in 10.0 mi South 21.9 mph 34.5 mph N/A   Overcast
3:35 PM 44.6 °F 35.1 °F 35.6 °F 71% 29.99 in 10.0 mi South 27.6 mph 34.5 mph N/A   Overcast
3:55 PM 44.6 °F 35.1 °F 35.6 °F 71% 29.99 in 10.0 mi South 27.6 mph 34.5 mph N/A   Overcast
4:15 PM 44.6 °F 35.5 °F 35.6 °F 71% 30.00 in 10.0 mi South 25.3 mph 32.2 mph N/A   Overcast
4:35 PM 44.6 °F 35.9 °F 35.6 °F 71% 30.00 in 10.0 mi South 23.0 mph 34.5 mph N/A   Overcast
4:55 PM 44.6 °F 35.9 °F 35.6 °F 71% 30.00 in 10.0 mi South 23.0 mph 29.9 mph N/A   Overcast
5:15 PM 44.6 °F 36.6 °F 35.6 °F 71% 30.01 in 10.0 mi South 19.6 mph 29.9 mph N/A   Overcast
5:35 PM 44.6 °F 36.4 °F 35.6 °F 71% 30.00 in 10.0 mi South 20.7 mph 28.8 mph N/A   Overcast
5:55 PM 44.6 °F 35.9 °F 35.6 °F 71% 30.00 in 10.0 mi South 23.0 mph 31.1 mph N/A   Overcast
6:15 PM 44.6 °F 35.9 °F 35.6 °F 71% 30.01 in 10.0 mi South 23.0 mph 28.8 mph N/A   Overcast
6:35 PM 44.6 °F 36.1 °F 35.6 °F 71% 30.01 in 10.0 mi South 21.9 mph 27.6 mph N/A   Overcast
6:55 PM 44.6 °F 35.9 °F 35.6 °F 71% 30.00 in 10.0 mi South 23.0 mph 27.6 mph N/A   Overcast
7:15 PM 44.6 °F 35.9 °F 35.6 °F 71% 30.00 in 10.0 mi South 23.0 mph 29.9 mph N/A   Overcast
7:35 PM 44.6 °F 35.9 °F 35.6 °F 71% 30.00 in 10.0 mi South 23.0 mph 27.6 mph N/A   Overcast
7:55 PM 44.6 °F 36.9 °F 35.6 °F 71% 30.00 in 10.0 mi South 18.4 mph 25.3 mph N/A   Overcast
8:15 PM 44.6 °F 35.9 °F 35.6 °F 71% 30.00 in 10.0 mi South 23.0 mph 27.6 mph N/A   Overcast
8:35 PM 44.6 °F 36.4 °F 35.6 °F 71% 30.00 in 10.0 mi South 20.7 mph 26.5 mph N/A   Overcast
8:55 PM 44.6 °F 36.6 °F 35.6 °F 71% 30.00 in 10.0 mi South 19.6 mph 28.8 mph N/A   Overcast
9:15 PM 44.6 °F 36.4 °F 35.6 °F 71% 30.00 in 10.0 mi South 20.7 mph 28.8 mph N/A   Overcast
9:35 PM 44.6 °F 36.4 °F 35.6 °F 71% 30.00 in 10.0 mi South 20.7 mph 26.5 mph N/A   Overcast
9:55 PM 44.6 °F 36.6 °F 35.6 °F 71% 30.00 in 10.0 mi South 19.6 mph 26.5 mph N/A   Overcast
10:15 PM 44.6 °F 36.6 °F 35.6 °F 71% 30.00 in 10.0 mi South 19.6 mph 28.8 mph N/A   Overcast
10:35 PM 44.6 °F 36.4 °F 35.6 °F 71% 30.00 in 10.0 mi SSE 20.7 mph 27.6 mph N/A   Overcast
10:55 PM 44.6 °F 36.4 °F 35.6 °F 71% 30.01 in 10.0 mi SSE 20.7 mph 27.6 mph N/A   Overcast
11:15 PM 44.6 °F 36.6 °F 35.6 °F 71% 30.01 in 10.0 mi SSE 19.6 mph 25.3 mph N/A   Overcast
11:35 PM 44.6 °F 36.1 °F 35.6 °F 71% 30.00 in 10.0 mi SSE 21.9 mph 27.6 mph N/A   Overcast
11:55 PM 44.6 °F 36.1 °F 35.6 °F 71% 30.00 in 10.0 mi South 21.9 mph 27.6 mph N/A   Overcast